Regional Weather Roundup
Issued by NWS

Home | Current Version | Previous Version | Text Only | Print | Product List | Glossary On
Versions: 1 2 3 4 5 6 7 8 9 10 11 12 13 14 15 16 17 18 19 20 21 22 23 24 25 26 27 28 29 30 31 32 33 34 35 36 37 38 39 40 41 42 43 44 45 46 47 48 49 50
000
ASUS46 KPQR 072210
RWROR

OREGON REGIONAL WEATHER ROUNDUP
NATIONAL WEATHER SERVICE PORTLAND OR
300 PM PDT TUE JUL 07 2015

NOTE: "FAIR" INDICATES FEW OR NO CLOUDS BELOW 12,000 FEET WITH
NO SIGNIFICANT WEATHER AND/OR OBSTRUCTIONS TO VISIBILITY.

ORZ001>013-072300-
NORTHWEST OREGON


CITY           SKY/WX    TMP DP  RH WIND       PRES   REMARKS
ASTORIA        SUNNY     70  57  63 NW12      29.99F
NEWPORT        MOSUNNY   64  54  68 NW9       30.03F
PORTLAND       MOSUNNY   82  55  39 W7        29.91F
VANCOUVER WA   SUNNY     82  55  39 VRB6      29.91F
SCAPPOOSE      SUNNY     85  58  39 N7        29.91F
HILLSBORO      SUNNY     83  52  34 SE5       29.91F
AURORA         MOSUNNY   82  56  40 VRB3      29.92F
MCMINNVILLE    SUNNY     84  56  38 VRB3      29.92F
SALEM          MOSUNNY   83  55  38 CALM      29.91F
CORVALLIS      MOSUNNY   86  55  35 NW9       29.93F
EUGENE         MOSUNNY   88  54  31 N9        29.91F
$$

ORZ021-028-072300-
SOUTHWEST OREGON


CITY           SKY/WX    TMP DP  RH WIND       PRES   REMARKS
NORTH BEND     SUNNY     64  54  68 NW12      30.01S
BROOKINGS      SUNNY     64  58  81 W8        30.00F
ROSEBURG       SUNNY     90  57  32 N8G18     29.88F
SEXTON SUMMIT  SUNNY     84  57  39 VRB3      30.02F
MEDFORD        MOSUNNY   97  54  23 NW9       29.83F HX  95
$$

ORZ014>016-041-072300-
COLUMBIA GORGE


CITY           SKY/WX    TMP DP  RH WIND       PRES   REMARKS
TROUTDALE      SUNNY     82  56  40 W7        29.90F
THE DALLES     MOSUNNY   97  38  13 NW18G26   29.79F HX  92
$$

ORZ029>031-041-044-049-050-061>064-502-503-505>511-072300-
EASTERN OREGON


CITY           SKY/WX    TMP DP  RH WIND       PRES   REMARKS
REDMOND        SUNNY     91  48  22 N13       29.93F
BEND             N/A    N/A N/A N/A MISG        N/A
PRINEVILLE     SUNNY     91  43  18 NW13G22   29.94F
KLAMATH FALLS  MOSUNNY   87  41  19 MISG      29.97F
LAKEVIEW       MOSUNNY   88  46  23 N14G20    30.01F
HERMISTON      SUNNY     97  42  15 W6G17     29.79F HX  93
PENDLETON      SUNNY     95  43  16 VRB7      29.84F HX  91
JOHN DAY       MOSUNNY   93  44  18 NW6       29.95F
MEACHAM        MOSUNNY   85  43  22 VRB3      29.99F
LA GRANDE      MOSUNNY   91  48  22 SE10      29.90F
BAKER CITY     NOT AVBL
BURNS          LGT RAIN  83  42  23 N13       29.99R
ROME             N/A     89  42  19 N9        29.96S
ONTARIO        SUNNY     94  46  19 CALM      29.87F HX  90
$$


USA.gov is the U.S. government's official web portal to all federal, state and local government web resources and services.